Regional Weather Roundup
Issued by NWS

Home | Current Version | Previous Version | Text Only | Print | Product List | Glossary Off
Versions: 1 2 3 4 5 6 7 8 9 10 11 12 13 14 15 16 17 18 19 20 21 22 23 24 25 26 27 28 29 30 31 32 33 34 35 36 37 38 39 40 41 42 43 44 45 46 47 48 49 50

000
ASUS44 KMEG 301110
RWRTN
TENNESSEE HOURLY STATE WEATHER ROUNDUP
NATIONAL WEATHER SERVICE MEMPHIS TN
600 AM CDT TUE JUN 30 2015

TNZ002-004-019-021-049-052-054-088>092-301200-
WEST TENNESSEE

CITY           SKY/WX    TMP DP  RH WIND       PRES   REMARKS
MEMPHIS INTL   PTCLDY    71  66  84 CALM      29.94R
NWS MEMPHIS      N/A     68 N/A N/A MISG        N/A
JACKSON        PTCLDY    70  65  84 S6        29.93R
DYERSBURG        N/A    N/A N/A N/A MISG        N/A
PARIS          MOCLDY    66  66 100 SW5       29.92R
LEXINGTON      CLEAR     70  68  94 CALM      29.92S
$$

TNZ008-025-027-028-033-062-065-066-301200-
NORTH MIDDLE TENNESSEE

CITY           SKY/WX    TMP DP  RH WIND       PRES   REMARKS
NASHVILLE      MOCLDY    69  68  96 CALM      29.93S
CLARKSVILLE    CLEAR     67  66  97 S5        29.91R
SMYRNA         PTCLDY    70  68  93 CALM      29.94S
COOKEVILLE     PTCLDY    66  66 100 CALM      29.97R
CROSSVILLE     MOCLDY    65  62  90 CALM      30.01R
$$

TNZ061-075-076-078-094-096-097-301200-
SOUTH MIDDLE TENNESSEE

CITY           SKY/WX    TMP DP  RH WIND       PRES   REMARKS
FAYETTEVILLE   CLEAR     68  63  83 CALM      29.95F
TULLAHOMA      MOCLDY    72  64  78 CALM      29.97S
WINCHESTER     MOCLDY    73  66  78 CALM      29.97S
MCMINNVILLE    MOCLDY    70  70 100 CALM      29.97R
COLUMBIA       CLEAR     70  70 100 CALM      29.92S
SHELBYVILLE    MOCLDY    70  70 100 CALM      29.96R
$$

TNZ017-018-042-046-047-301200-
NORTHEAST TENNESSEE

CITY           SKY/WX    TMP DP  RH WIND       PRES   REMARKS
TRI CITIES     RAIN      66  63  90 S6        30.00R FOG
ELIZABETHTON   HVY RAIN  63  63 100 NW5       30.02R FOG
$$

TNZ012-013-036-069-073-074-301200-
CENTRAL EAST TENNESSEE

CITY           SKY/WX    TMP DP  RH WIND       PRES   REMARKS
KNOXVILLE      LGT RAIN  66  64  93 NW6       29.98R
OAK RIDGE      CLOUDY    65  63  93 CALM      30.00R
GATLINBURG     CLOUDY    63  61  94 S7        29.98S
MORRISTOWN     MOSUNNY   63  63 100 SW3       30.02R
$$

TNZ083-085-099-301200-
SOUTHEAST TENNESSEE

CITY           SKY/WX    TMP DP  RH WIND       PRES   REMARKS
CHATTANOOGA    TSTM      71  66  84 SW13      29.96R
$$

SKY/WX REPORTED AS FAIR MEANS FEW OR NO CLOUDS BELOW
12 THOUSAND FEET.



USA.gov is the U.S. government's official web portal to all federal, state and local government web resources and services.